GEFSCGP_con_prob3kmehi_186.txt.gz
EHI
0 0 0 0 0 0 0 0 0 0 0 0 1 3 6 8 6 4 6 13 20 25 26 23 19 19 23 29 32 33 32 31 32 28 20 14 10 6 4 2 1 1 1 1
0 0 0 0 0 0 0 0 0 0 0 0 0 2 5 7 6 5 6 11 19 26 29 28 25 25 29 34 35 35 34 32 31 30 23 16 10 7 6 4 2 2 3 3
0 0 0 0 0 0 0 0 0 0 0 0 0 2 5 8 9 9 8 11 18 26 32 34 35 36 36 38 38 36 36 34 31 28 24 18 14 11 8 6 4 3 4 5
0 0 0 0 0 0 0 0 0 0 0 0 0 2 5 9 13 15 14 14 18 25 32 37 41 42 40 37 35 36 38 36 32 26 21 19 17 13 9 5 4 3 4 5
0 0 0 0 0 0 0 0 0 0 0 0 0 0 2 6 11 17 18 18 19 24 31 36 38 40 38 32 30 34 38 37 32 27 22 20 19 15 9 5 4 5 4 4
0 0 0 0 0 0 0 0 0 0 0 0 0 0 0 2 5 12 19 22 23 27 33 35 36 37 34 30 27 30 33 34 32 29 25 23 22 18 13 9 7 6 5 4
0 0 0 0 0 0 0 0 0 0 0 0 0 0 0 1 2 7 16 22 25 28 34 38 39 39 36 33 29 29 32 33 32 32 30 26 23 20 17 12 9 7 6 5
0 0 0 0 0 0 0 0 0 0 0 0 0 0 1 1 2 3 10 17 22 26 34 39 40 39 39 37 34 34 36 36 34 33 31 26 23 20 18 14 10 8 7 7
0 0 0 0 0 0 0 0 0 0 0 0 0 0 1 2 2 3 8 16 22 27 33 38 38 37 37 37 37 38 39 39 37 34 28 24 23 22 20 17 13 10 11 11
0 0 0 0 0 0 0 0 0 0 0 0 0 0 1 3 5 7 12 21 28 31 35 39 38 36 36 37 39 38 39 40 38 33 27 24 24 25 23 20 16 13 12 13
0 0 0 0 0 0 0 0 0 0 0 0 0 0 1 4 8 11 18 26 32 34 38 41 40 38 38 38 39 39 39 38 36 33 30 27 26 25 24 21 17 15 13 12
0 0 0 0 0 0 0 0 0 0 0 0 0 1 2 5 8 13 22 32 37 39 43 45 43 41 39 38 39 42 41 38 35 35 35 32 28 25 23 21 18 15 14 13
0 0 0 0 0 0 0 0 0 0 0 0 0 1 2 5 10 16 25 37 44 47 50 50 45 41 37 36 38 42 41 37 35 36 37 35 30 27 25 22 18 17 16 16
0 0 0 0 0 0 0 0 0 0 0 0 0 1 2 6 12 20 30 41 48 52 54 51 46 40 38 38 39 40 40 37 35 36 38 36 32 29 26 23 20 18 17 16
0 0 0 0 0 0 0 0 0 0 0 0 0 0 3 7 14 24 35 43 49 53 54 52 47 44 45 45 42 40 40 40 39 39 38 35 31 28 25 24 22 19 17 16
0 0 0 0 0 0 0 0 0 0 0 0 0 1 4 10 17 28 40 48 51 54 56 56 51 49 51 49 44 42 43 44 44 42 38 33 29 25 22 23 22 19 17 16
0 0 0 0 0 0 0 0 0 0 0 1 2 4 7 13 22 33 45 51 53 55 59 60 54 52 53 51 45 44 45 46 46 42 34 28 25 22 21 21 20 18 16 15
0 0 0 0 0 0 0 0 0 0 1 4 7 9 12 18 27 37 44 50 54 59 62 60 55 53 54 52 47 44 43 45 44 38 31 24 21 20 20 20 19 16 14 13
0 0 0 0 0 0 0 0 0 1 2 6 10 14 19 22 26 35 44 50 56 63 64 60 55 54 56 53 47 42 42 43 40 34 29 24 20 19 20 19 18 17 15 13
0 0 0 0 0 0 0 0 0 1 3 8 13 20 25 26 30 42 51 53 56 61 62 60 58 58 59 55 46 41 40 40 37 32 29 24 20 19 20 20 18 16 14 12
0 0 0 0 0 1 1 1 2 7 14 19 23 29 33 37 43 51 56 55 52 54 58 61 61 62 62 55 47 42 39 36 34 30 27 23 20 19 20 20 17 14 11 9
0 0 0 0 0 1 5 9 15 25 34 34 34 37 41 45 48 50 52 51 48 48 54 60 62 61 58 52 48 45 38 33 29 25 22 20 19 18 17 17 15 13 9 7
0 1 2 2 2 4 12 23 32 40 45 43 40 40 41 43 45 45 44 45 45 48 53 58 58 55 49 46 47 44 36 29 25 21 18 17 16 15 14 14 13 12 9 6
1 2 4 6 8 12 21 32 39 41 41 39 38 38 38 41 44 43 41 42 44 47 51 54 52 48 43 40 39 38 34 28 24 21 18 15 14 14 13 12 12 11 7 5
1 2 6 10 14 20 28 35 37 38 36 34 34 34 35 39 41 39 39 40 40 41 44 46 44 41 37 33 30 31 30 27 24 21 19 17 14 13 12 11 9 8 5 4
1 3 6 11 16 23 32 37 36 37 37 34 33 32 32 35 36 35 36 37 35 36 38 39 38 35 31 27 26 26 26 24 23 22 21 18 15 12 11 9 7 5 3 2

GEFSCGP_con_prob3kmehi_192.txt.gz
EHI
0 0 0 0 0 0 0 0 0 0 0 0 1 4 7 7 7 14 26 37 46 52 55 55 50 52 59 63 61 54 46 42 38 34 31 25 18 15 15 14 14 14 13 13
0 0 0 0 0 0 0 0 0 0 0 0 1 3 6 7 8 12 23 34 42 53 62 64 60 56 61 67 66 60 54 47 41 37 33 27 21 18 18 18 20 20 19 18
0 0 0 0 0 0 0 0 0 0 0 0 0 2 6 8 8 11 19 29 38 51 65 70 66 61 62 68 69 65 61 53 44 39 33 27 23 21 21 22 25 26 24 22
0 0 0 0 0 0 0 0 0 0 0 0 0 2 5 7 8 10 15 24 34 47 61 69 69 65 62 64 68 71 67 58 48 40 32 27 25 23 23 24 25 27 26 23
0 0 0 0 0 0 0 0 0 0 0 0 0 2 4 6 7 9 13 20 30 44 57 67 70 67 62 61 67 72 70 63 53 44 36 31 26 23 22 22 23 25 26 26
0 0 0 0 0 0 0 0 0 0 0 0 0 1 3 4 7 10 13 17 27 40 55 65 70 68 63 61 64 67 67 64 57 48 40 35 29 22 20 20 21 23 27 28
0 0 0 0 0 0 0 0 0 0 0 0 0 1 1 3 7 11 12 15 25 40 53 62 68 69 65 62 63 64 66 64 57 48 41 38 33 25 22 22 22 24 26 27
0 0 0 0 0 0 0 0 0 0 0 0 1 2 1 3 8 11 13 17 27 40 50 57 63 65 64 62 61 64 67 64 57 48 43 41 37 30 26 26 26 26 25 23
0 0 0 0 0 0 0 0 0 0 0 0 2 3 3 5 8 11 14 20 29 38 47 52 54 58 61 60 60 64 68 65 57 49 45 42 39 34 30 30 31 30 26 21
0 0 0 0 0 0 0 0 0 0 0 0 1 3 4 5 7 11 15 23 31 37 43 47 48 51 57 60 62 66 69 66 58 52 47 43 40 37 34 34 34 33 28 23
0 0 0 0 0 0 0 0 0 0 0 0 1 2 3 3 5 11 18 27 34 39 43 47 47 50 56 61 64 67 68 65 59 54 50 46 40 38 37 36 35 34 31 27
0 0 0 0 0 0 0 0 0 0 0 0 1 1 1 2 5 13 23 32 40 45 49 51 51 52 56 60 63 64 65 63 58 54 51 46 40 38 38 37 35 33 31 29
0 0 0 0 0 0 0 0 0 0 0 0 0 1 2 4 8 18 29 38 46 54 58 60 59 57 56 59 61 61 61 61 57 52 50 47 42 40 39 38 36 33 30 27
0 0 0 0 0 0 0 0 0 0 0 0 1 3 5 8 14 24 36 46 54 61 68 71 70 65 60 58 59 59 59 60 57 53 51 49 47 44 40 38 36 33 30 27
0 0 0 0 0 0 0 0 0 0 0 0 3 6 9 13 20 30 41 52 61 68 74 77 78 74 67 60 60 60 59 59 58 55 54 53 52 45 38 34 33 32 31 28
0 0 0 0 0 0 0 0 0 0 0 1 5 9 14 21 31 42 51 57 65 72 77 80 81 80 73 67 64 63 61 59 56 54 54 54 51 41 32 28 29 29 28 28
1 1 1 0 0 0 0 0 0 0 1 4 8 12 18 28 42 55 63 65 68 74 79 83 83 81 78 73 69 64 60 58 55 52 52 52 47 37 28 25 25 25 24 24
3 4 2 0 0 0 0 0 0 1 4 7 11 15 21 32 45 59 68 71 72 75 79 82 81 78 77 75 69 63 59 58 56 53 50 49 44 36 29 25 23 23 21 21
5 8 4 0 0 0 0 0 0 2 6 10 12 17 25 32 41 56 69 74 75 76 78 78 76 75 74 72 67 62 58 56 54 51 48 44 40 34 29 25 23 21 20 19
4 5 3 0 0 0 1 2 1 3 8 13 18 25 35 40 45 59 72 74 74 75 76 74 72 72 73 71 66 61 58 56 53 49 44 40 35 31 28 25 23 20 18 17
1 1 1 0 0 2 4 6 8 15 22 25 29 39 49 57 61 68 73 71 69 71 73 71 70 71 71 70 67 64 61 58 53 46 42 38 32 27 25 24 21 19 18 18
0 0 0 1 5 11 18 22 27 37 42 39 41 50 60 68 73 74 72 68 66 68 70 69 68 69 68 67 66 65 63 58 50 41 37 34 28 24 22 21 20 18 18 19
2 3 5 8 17 28 37 43 47 50 51 48 48 53 60 66 70 72 71 68 67 67 67 65 64 64 64 64 63 62 60 54 45 36 31 27 23 21 21 20 19 18 18 19
6 9 14 21 28 36 44 51 52 50 49 47 48 51 56 62 65 66 66 66 63 63 63 60 58 58 58 58 56 55 53 48 39 31 26 21 19 20 21 20 19 18 17 17
9 13 20 28 32 34 39 46 49 48 46 45 45 48 53 58 61 59 58 57 56 55 54 52 49 50 50 48 47 46 45 40 33 27 23 19 17 19 21 20 17 15 15 14
9 13 20 28 32 32 35 43 47 47 45 45 46 48 51 57 59 55 52 50 50 49 47 45 43 43 42 41 40 40 40 36 30 25 22 18 17 20 22 19 15 12 10 9

GEFSCGP_con_prob3kmehi_198.txt.gz
EHI
0 0 0 0 0 0 0 1 1 2 4 6 8 8 6 5 5 9 15 19 22 28 35 43 47 47 43 38 29 23 23 22 19 16 13 10 8 8 8 7 6 5 6 8
0 0 0 0 0 0 1 1 1 3 6 8 9 7 6 6 7 10 14 19 23 27 35 44 49 50 48 44 37 32 28 26 23 19 14 11 10 9 9 8 6 5 6 7
0 0 0 0 0 1 2 2 1 3 6 8 8 6 5 7 8 11 16 21 24 27 35 44 49 52 53 51 46 40 33 29 26 21 16 13 11 11 11 9 7 5 5 6
0 0 0 0 0 1 1 1 0 1 2 4 4 3 3 4 6 11 19 25 28 31 36 43 50 54 54 51 46 40 33 28 25 22 19 15 11 10 10 9 7 6 6 6
0 0 0 0 0 0 0 0 0 0 0 1 1 1 2 1 3 9 19 28 35 37 40 46 52 56 54 49 44 39 34 29 25 23 21 18 14 12 11 10 8 7 7 7
0 0 0 0 0 0 0 0 0 0 0 0 0 1 2 1 2 8 18 29 38 43 47 51 54 56 56 52 46 42 39 34 29 27 26 24 21 18 15 13 12 10 9 7
0 0 0 0 0 0 0 0 0 0 0 0 0 0 1 1 1 7 17 26 36 45 49 51 54 58 59 57 52 47 43 39 35 33 31 28 25 22 18 17 16 13 10 8
0 0 0 0 0 0 0 0 0 0 0 0 0 0 1 3 4 8 16 23 32 41 44 44 50 57 60 59 56 52 47 44 41 39 35 30 27 25 22 20 19 16 12 11
0 0 0 0 0 0 0 0 0 0 0 0 0 1 3 7 10 13 19 25 30 35 37 38 42 50 55 57 56 54 51 47 44 42 37 32 30 30 27 25 22 18 15 14
0 0 0 0 0 0 0 0 0 0 0 0 0 0 4 9 13 15 21 28 31 32 33 34 36 42 48 51 53 53 51 49 45 42 38 34 33 32 30 27 24 21 18 17
0 0 0 0 0 0 0 0 0 0 0 0 0 0 3 9 12 14 20 28 31 31 32 33 35 40 44 47 49 49 50 49 46 44 40 35 33 32 30 28 24 21 19 18
0 0 0 0 0 0 0 0 0 0 0 0 0 1 3 7 11 15 22 29 34 35 35 34 38 44 47 48 48 47 49 50 48 44 40 38 36 33 31 28 24 20 19 19
0 0 0 0 0 0 0 0 0 0 0 0 0 1 4 9 14 21 29 35 40 43 41 41 44 47 49 50 49 47 48 51 49 45 42 41 40 36 32 29 24 20 19 19
0 0 0 0 0 0 0 0 0 0 0 0 0 2 5 11 19 27 35 40 46 49 49 49 49 47 48 50 49 47 49 51 50 47 44 43 40 35 31 28 24 20 18 17
0 0 0 0 0 0 0 0 0 0 0 1 2 5 7 12 21 31 40 47 53 55 55 53 51 48 49 50 48 48 48 49 49 48 45 40 35 31 27 24 22 18 15 13
0 0 0 0 0 0 0 0 1 1 2 3 6 9 11 15 24 36 47 55 60 61 59 54 51 50 51 52 50 49 48 46 46 48 43 35 29 25 23 19 17 16 13 12
0 0 0 0 0 0 0 1 1 2 4 6 11 15 17 21 30 43 52 58 63 63 60 55 51 50 51 51 50 49 47 43 43 44 40 31 25 21 19 16 15 15 13 12
1 1 0 0 0 0 1 2 3 4 6 10 16 22 26 31 39 48 54 58 63 63 61 57 53 50 49 48 46 45 44 42 41 39 34 28 23 19 17 16 16 15 13 11
0 0 0 0 0 0 1 3 5 6 9 14 20 28 36 43 49 51 54 59 63 63 61 58 56 53 50 46 43 43 41 39 37 34 29 25 20 18 17 16 16 15 12 11
0 0 0 0 0 0 1 4 6 7 12 18 25 34 44 51 51 51 54 60 64 63 60 59 59 57 51 45 44 43 38 34 31 28 25 22 18 17 16 16 15 14 12 11
0 0 0 0 0 1 3 6 6 7 15 23 30 40 51 56 53 53 57 62 65 62 60 59 60 57 52 46 44 41 34 28 25 24 22 19 16 15 15 14 14 14 12 12
0 0 0 0 0 2 7 8 8 11 19 30 38 48 58 62 60 57 58 63 64 61 58 58 56 52 48 46 42 37 31 26 24 24 21 16 13 12 12 13 13 14 13 13
1 1 2 3 4 7 11 14 15 20 29 38 46 54 61 63 61 58 58 60 60 58 55 52 48 44 42 40 37 33 28 25 25 22 17 12 9 9 10 12 13 14 14 13
2 4 7 9 12 15 17 21 26 32 39 45 48 53 57 58 57 55 54 54 54 53 51 47 42 39 36 32 28 25 24 24 23 20 14 9 7 7 9 10 12 13 13 13
2 6 11 14 16 19 20 23 30 37 43 47 48 49 51 51 50 48 46 45 46 45 43 39 37 34 30 25 20 18 18 20 20 16 12 8 7 6 7 8 9 10 10 10
2 6 11 13 16 18 18 21 27 35 43 48 48 47 46 46 45 43 39 37 39 38 35 34 32 29 24 20 17 14 15 17 17 14 10 7 6 6 5 6 7 7 7 7

GEFSCGP_con_prob3kmehi_204.txt.gz
EHI
0 0 0 0 0 0 0 1 1 1 0 1 2 2 2 2 4 6 6 8 11 13 16 16 14 10 7 5 4 5 7 8 6 5 5 5 4 2 1 0 0 0 0 0
0 0 0 0 0 0 0 1 2 2 1 0 1 1 1 1 2 5 7 9 11 14 16 15 12 9 8 7 6 7 8 8 7 6 6 5 4 2 0 0 0 0 0 0
0 0 0 0 0 0 0 1 2 4 2 0 0 0 0 0 1 5 7 9 12 14 14 14 12 11 11 11 12 12 11 8 7 7 7 6 4 2 1 0 0 0 0 0
0 0 0 0 0 0 0 1 2 3 2 0 0 0 0 0 1 4 6 8 10 12 12 13 15 16 17 18 18 17 13 9 7 7 6 5 4 3 1 0 0 0 0 0
0 0 0 0 0 0 0 1 2 1 0 0 0 0 0 0 1 3 5 6 8 9 10 12 16 18 20 23 23 19 13 9 7 6 5 4 4 3 2 1 0 0 0 0
0 0 0 0 0 0 0 0 0 0 0 0 0 0 0 0 0 2 5 6 6 7 8 11 14 15 19 23 23 19 14 9 7 6 5 5 5 4 4 3 1 0 0 0
0 0 0 0 0 0 0 0 0 0 0 0 0 0 0 0 0 1 4 5 6 7 7 10 12 13 18 22 21 18 15 10 8 8 8 7 7 7 7 6 3 1 1 1
0 0 0 0 0 0 0 0 0 0 0 0 0 0 0 0 0 1 2 5 7 7 7 9 9 11 17 21 21 20 17 13 10 10 10 9 8 9 10 9 6 3 2 2
0 0 0 0 0 0 0 0 0 0 0 0 0 0 0 0 0 1 3 6 8 8 8 8 7 8 12 18 21 21 19 16 12 11 11 10 10 12 12 11 8 5 4 4
0 0 0 0 0 0 0 0 0 0 0 0 0 0 0 0 0 1 4 8 10 10 9 8 8 7 8 13 17 19 20 18 14 11 11 12 12 14 14 14 12 9 7 6
0 0 0 0 0 0 0 0 0 0 0 0 0 0 0 0 0 1 4 8 10 10 9 8 8 9 9 11 14 18 21 20 17 14 15 15 15 15 16 17 17 15 12 11
0 0 0 0 0 0 0 0 0 0 0 0 0 0 0 0 1 2 4 7 7 7 8 9 10 11 11 13 14 16 19 20 18 18 18 19 18 17 17 19 20 20 17 14
0 0 0 0 0 0 0 0 0 0 0 0 0 0 0 0 1 2 4 7 8 7 9 10 11 11 13 14 15 15 16 17 18 18 19 20 20 19 17 17 19 20 18 15
0 0 0 0 0 0 0 0 0 0 0 0 0 0 0 1 2 4 6 10 12 11 13 14 12 11 13 14 16 15 14 16 18 19 20 22 23 20 17 15 16 17 15 14
0 0 0 0 0 0 1 1 1 1 1 1 1 1 1 3 5 8 11 15 17 19 20 17 13 12 13 16 17 15 13 14 17 19 21 23 23 20 16 14 14 14 13 12
0 0 0 0 0 1 2 3 3 2 2 2 2 3 5 7 10 14 18 21 24 26 24 20 15 13 15 19 21 19 15 13 15 17 19 19 19 17 14 13 12 12 11 11
0 0 0 0 0 1 2 2 2 3 3 4 4 5 9 13 14 16 21 26 30 30 26 23 20 16 17 22 25 24 20 17 17 16 15 15 14 13 12 12 12 12 11 10
0 0 0 0 0 0 0 0 1 1 3 4 5 7 12 16 16 15 19 27 32 32 28 27 26 22 21 24 27 27 26 24 22 19 16 14 12 10 10 11 13 13 11 11
0 0 0 0 0 0 0 0 0 1 2 4 6 10 15 17 16 13 16 23 30 31 31 32 31 27 26 28 29 30 31 29 26 23 19 15 11 9 7 9 11 12 13 12
0 0 0 0 0 0 0 1 1 1 2 3 7 12 15 15 13 11 15 21 26 29 33 35 34 30 28 29 30 31 31 28 25 22 19 14 11 8 7 7 8 11 13 13
0 0 0 0 0 0 1 2 2 1 1 4 8 11 13 14 14 15 19 25 30 33 36 38 37 34 29 27 28 29 27 23 21 19 16 13 10 8 6 5 6 8 10 11
0 0 0 0 0 0 1 2 1 0 2 7 10 12 15 18 20 23 27 32 38 42 41 39 38 35 29 26 26 25 22 19 18 17 14 11 9 6 4 3 3 4 5 6
0 0 0 0 1 1 1 2 2 1 4 9 13 15 19 22 23 26 31 36 41 43 41 37 36 32 27 24 24 23 19 16 14 13 11 8 6 4 2 1 1 2 2 2
0 0 0 1 2 3 3 3 3 5 8 15 19 19 22 23 23 27 31 34 37 38 37 36 34 30 24 21 19 17 15 13 11 8 7 5 4 3 2 1 1 1 1 0
0 0 0 1 3 3 3 4 6 9 16 23 27 26 26 27 27 28 30 31 31 31 32 33 31 27 23 19 15 11 10 10 8 5 4 2 2 2 1 0 0 0 0 0
0 0 0 1 1 2 3 4 7 13 19 27 32 32 30 31 30 30 29 28 27 27 28 29 27 23 21 18 14 10 8 8 6 4 3 2 1 1 1 0 0 0 0 0

GEFSCGP_con_prob3kmehi_210.txt.gz
EHI
0 0 0 0 0 0 0 0 1 0 0 0 0 0 2 4 5 6 6 5 6 9 9 6 7 9 9 10 14 16 19 19 17 13 9 6 4 3 3 3 3 3 3 3
0 0 0 0 0 0 0 0 1 0 0 0 0 0 3 5 6 5 4 4 6 9 9 8 9 11 12 12 15 18 21 21 18 13 10 7 5 5 4 4 4 4 4 4
0 0 0 0 0 0 0 0 0 0 0 0 0 1 5 7 8 6 4 3 5 8 9 11 12 13 13 14 16 19 23 25 20 15 12 11 9 8 8 7 6 6 7 7
0 0 0 0 0 0 0 0 0 0 0 0 0 1 4 7 8 7 4 3 4 7 9 10 13 14 13 14 17 21 27 27 23 18 16 15 14 12 10 8 8 8 9 9
0 0 0 0 0 0 0 0 0 0 0 0 0 0 2 4 6 6 4 5 6 7 8 9 12 15 13 14 17 24 29 30 26 22 20 19 18 15 11 9 9 8 7 7
0 0 0 0 0 0 0 0 0 0 0 0 0 0 0 1 2 3 7 11 12 11 9 10 13 16 16 15 17 22 29 31 29 25 23 22 20 18 15 13 11 8 6 5
0 0 0 0 0 0 0 0 0 0 0 0 0 0 1 1 1 2 9 16 18 16 13 11 13 17 18 19 18 21 27 30 29 27 25 24 21 18 17 15 12 9 7 5
0 0 0 0 0 0 0 0 0 0 0 0 0 1 2 3 3 5 10 17 21 19 16 12 11 15 19 22 21 21 27 30 30 28 27 25 21 16 14 14 11 8 6 6
0 0 0 0 0 0 0 0 0 0 0 0 0 1 3 5 7 9 13 19 23 21 18 15 12 13 18 22 21 22 28 33 33 32 31 27 22 16 13 12 11 9 9 9
0 0 0 0 0 0 0 0 0 0 0 0 0 0 2 6 10 14 17 21 23 23 23 21 17 15 17 20 22 24 28 33 35 34 31 27 24 20 16 15 15 15 15 16
0 0 0 0 0 0 0 0 0 0 0 0 0 0 2 6 10 15 18 20 22 24 27 27 24 21 21 22 26 29 31 32 33 32 29 26 25 23 20 18 18 19 20 20
0 0 0 0 0 0 0 0 0 0 0 0 0 0 2 5 9 14 18 20 23 26 31 32 31 31 30 29 32 35 35 32 30 30 30 28 27 26 24 22 21 21 21 21
0 0 0 0 0 0 0 0 0 0 0 0 0 1 3 7 10 12 15 20 26 33 36 37 38 39 39 38 37 39 38 35 32 32 33 31 29 29 27 24 22 22 21 20
0 0 0 0 0 0 0 0 0 0 0 0 0 2 6 11 13 12 12 18 29 38 42 43 44 44 44 45 44 42 40 38 35 33 32 31 29 28 25 22 20 19 18 17
0 0 0 0 0 0 0 0 0 0 0 0 1 3 8 14 16 14 15 22 34 44 48 51 54 52 51 52 50 44 42 41 38 35 32 31 28 25 21 19 17 16 14 13
0 0 0 0 0 0 0 0 0 1 1 1 3 5 9 16 20 21 23 29 38 48 52 56 60 60 58 57 53 47 44 43 41 38 35 32 29 25 21 18 17 17 17 16
0 0 0 0 0 0 0 1 2 2 3 4 5 8 11 16 22 25 28 31 36 43 51 57 60 61 61 57 52 48 45 44 44 42 39 35 31 28 23 20 20 22 23 23
0 0 0 0 0 0 1 2 3 3 4 7 9 10 12 15 19 21 23 26 30 36 46 55 59 62 61 55 49 47 46 46 46 45 40 37 34 30 27 24 24 25 25 24
0 0 0 0 0 0 1 2 2 2 4 7 9 10 12 13 13 15 19 23 28 36 46 56 61 65 63 56 49 46 46 48 47 45 42 39 35 32 29 27 26 26 24 22
0 0 0 0 0 0 1 2 2 2 5 9 11 13 12 11 11 16 24 30 34 40 49 57 61 64 62 58 54 51 50 49 47 44 42 38 34 31 29 27 27 26 24 22
0 0 0 0 0 0 1 3 4 6 11 14 15 17 16 15 18 22 30 39 42 43 49 55 58 59 58 56 57 57 55 51 47 43 40 36 31 28 25 24 25 25 23 21
0 1 1 1 1 2 4 7 10 14 19 21 20 21 22 24 26 28 33 40 45 46 48 52 54 53 51 51 54 57 56 51 46 42 39 34 29 24 21 19 19 20 19 16
1 2 2 2 2 3 7 11 13 18 22 24 25 24 23 25 30 32 34 39 43 45 47 50 51 50 47 46 48 51 51 48 45 42 37 32 26 21 16 14 13 14 13 11
2 3 4 4 3 3 6 9 12 16 19 23 26 24 21 24 31 35 37 39 41 41 42 45 48 47 44 41 42 44 44 44 44 40 33 27 23 17 14 11 10 10 9 7
3 3 5 6 5 4 5 7 10 13 16 19 23 24 23 26 32 37 40 42 41 38 37 40 43 42 39 36 37 38 38 39 38 35 28 22 18 15 12 10 9 7 5 4
3 4 6 6 6 6 7 7 9 12 15 18 22 23 25 28 32 37 42 44 43 38 35 36 39 38 36 34 33 34 35 35 34 30 24 18 16 14 12 10 7 4 2 2

GEFSCGP_con_prob3kmehi_216.txt.gz
EHI
0 0 0 0 0 0 0 0 0 0 0 0 1 3 7 7 4 5 10 17 23 27 32 31 28 29 35 40 40 33 27 27 28 27 26 25 23 24 25 24 21 17 15 16
0 0 0 0 0 0 0 0 0 0 0 0 0 2 6 8 6 4 7 15 24 31 37 38 35 36 43 48 44 37 33 32 29 27 25 23 21 23 25 26 24 22 19 18
0 0 0 0 0 0 0 0 0 0 0 0 0 2 5 8 8 4 4 12 23 32 42 47 44 43 49 51 47 42 41 38 32 26 22 22 23 24 24 27 29 28 24 22
0 0 0 0 0 0 0 0 0 0 0 0 0 2 6 8 8 6 6 11 20 30 41 49 49 45 45 46 45 45 45 41 34 27 22 23 26 26 25 27 31 32 29 26
0 0 0 0 0 0 0 0 0 0 0 0 0 2 5 6 8 8 8 12 20 29 38 46 50 48 42 40 44 49 50 45 38 31 26 26 26 25 26 28 31 33 33 31
0 0 0 0 0 0 0 0 0 0 0 0 0 2 4 4 6 8 8 12 21 31 38 43 49 52 46 40 43 52 55 50 43 36 32 30 27 26 28 31 33 33 34 34
0 0 0 0 0 0 0 0 0 0 0 0 0 2 3 2 4 7 9 13 23 34 40 41 48 54 48 43 46 52 56 53 46 41 38 34 30 29 31 34 34 31 31 34
0 0 0 0 0 0 0 0 0 0 0 0 0 2 2 1 2 6 11 18 27 36 41 41 47 51 46 44 50 57 59 54 49 45 42 39 34 31 32 35 33 29 29 31
0 0 0 0 0 0 0 0 0 0 0 0 1 2 3 2 2 6 14 23 30 35 38 40 45 46 44 46 54 61 60 56 51 48 45 44 40 33 30 33 34 31 30 30
0 0 0 0 0 0 0 0 0 0 0 0 1 3 4 4 4 6 15 25 31 34 35 38 41 43 44 49 56 61 61 57 53 50 48 48 45 37 31 32 34 35 34 34
0 0 0 0 0 0 0 0 0 0 0 0 1 2 4 6 6 8 16 26 34 36 35 37 41 44 46 50 56 61 61 58 55 53 51 49 47 42 36 34 35 37 37 36
0 0 0 0 0 0 0 0 0 0 0 0 1 1 2 4 6 11 20 28 35 39 39 41 45 49 52 53 56 60 61 61 58 56 54 50 47 45 41 38 35 36 37 36
0 0 0 0 0 0 0 0 0 0 0 0 1 1 2 3 6 13 22 28 34 40 45 48 52 56 59 60 59 60 60 61 61 60 58 53 49 47 44 40 36 35 35 34
0 0 0 0 0 0 0 0 0 0 0 1 3 3 3 5 9 16 24 27 32 40 48 54 59 65 68 66 65 63 61 59 60 62 60 56 52 49 46 40 35 33 33 31
0 0 0 0 0 0 0 0 0 0 0 1 3 5 6 9 16 24 29 31 34 40 48 57 66 74 75 72 69 65 62 60 60 61 60 57 54 51 46 40 36 33 31 28
0 0 0 0 0 0 0 0 0 0 1 2 5 7 11 18 27 34 38 37 37 41 50 61 72 78 79 76 72 68 65 62 62 62 61 59 55 51 45 40 36 34 30 28
0 0 0 0 0 0 0 0 0 1 2 4 7 12 18 28 38 44 48 46 45 47 55 67 76 79 79 78 77 73 69 66 65 65 64 61 56 51 46 40 36 33 31 29
0 0 0 0 0 0 0 0 1 3 4 6 11 16 23 34 43 47 51 52 51 55 63 72 76 77 78 79 80 77 72 68 66 66 64 61 58 54 49 43 38 34 32 30
1 1 0 0 0 0 0 0 1 3 7 10 15 21 29 35 39 41 46 50 52 57 65 71 73 74 75 77 79 78 73 68 67 66 64 61 59 57 53 47 41 37 33 30
0 0 0 0 1 1 1 0 1 4 10 16 21 28 35 37 36 39 44 48 52 56 58 62 67 71 73 75 75 75 72 68 66 65 63 60 58 56 54 48 43 39 35 31
0 0 0 0 1 2 3 4 7 13 20 25 30 34 38 39 37 40 47 53 55 54 53 55 61 67 71 72 72 71 69 67 64 61 59 57 54 52 50 47 43 39 34 30
1 1 1 2 4 7 10 12 18 27 32 33 34 34 37 39 37 40 47 54 56 53 51 54 58 63 67 69 70 70 68 67 64 59 55 53 50 48 46 44 40 36 31 28
2 3 5 7 11 14 16 18 23 28 31 31 31 31 34 36 37 41 46 51 52 49 50 53 57 61 64 65 66 67 67 65 62 57 52 49 47 45 43 41 37 31 28 26
2 4 8 13 16 15 14 15 15 16 18 21 24 26 29 33 36 41 45 48 46 43 46 51 56 60 61 59 59 60 60 58 56 53 48 44 42 41 40 38 32 26 22 21
2 3 9 16 18 14 12 10 8 7 9 12 17 21 24 28 33 37 41 46 44 41 42 48 53 57 58 55 54 54 53 50 49 47 42 36 34 35 35 32 26 18 13 12
2 4 9 16 20 18 15 11 7 6 6 9 13 16 19 25 31 34 39 45 45 41 42 47 50 54 55 53 52 52 50 48 47 44 37 31 29 31 31 28 21 12 7 6

GEFSCGP_con_prob3kmehi_222.txt.gz
EHI
0 0 0 0 0 0 0 0 1 2 3 2 2 1 2 4 8 13 15 14 13 10 7 11 17 21 22 19 15 13 10 6 2 0 0 1 2 2 3 5 8 9 7 6
0 0 0 0 0 0 0 0 1 2 2 1 2 2 3 5 8 13 15 14 14 11 10 15 21 24 24 21 18 15 11 7 3 1 1 2 2 2 1 3 6 7 7 7
0 0 0 0 0 0 0 0 0 1 1 1 1 2 3 5 8 13 15 15 14 13 13 18 26 29 28 25 22 19 14 11 8 6 5 5 5 3 1 2 4 6 6 7
0 0 0 0 0 0 0 0 0 0 0 0 1 1 2 4 7 11 13 15 15 15 15 20 29 35 34 29 25 22 19 17 14 12 11 9 7 5 3 3 5 6 8 9
0 0 0 0 0 0 0 0 0 0 0 0 0 0 1 3 5 8 12 17 19 18 17 19 28 37 38 33 30 28 24 21 18 16 14 12 9 6 4 5 8 9 9 10
0 0 0 0 0 0 0 0 0 0 0 0 0 0 0 1 3 7 14 21 23 22 19 18 24 34 39 39 39 35 29 23 19 17 16 14 13 10 9 10 12 11 10 9
0 0 0 0 0 0 0 0 0 0 0 0 0 0 0 1 3 8 16 23 26 24 21 18 20 30 39 43 44 40 33 27 23 21 19 18 17 16 16 15 14 13 11 9
0 0 0 0 0 0 0 0 0 0 0 1 2 1 1 2 4 8 15 23 26 25 22 20 20 28 38 44 45 42 37 32 30 28 25 22 21 21 19 15 14 13 12 10
0 0 0 0 0 0 0 0 0 0 1 2 3 2 2 3 4 9 16 23 26 27 24 21 21 28 36 41 43 42 40 37 36 34 30 25 21 21 19 15 12 11 10 9
0 0 0 0 0 0 0 0 0 0 1 2 2 2 2 3 5 9 15 21 26 28 26 22 23 29 33 36 39 41 41 42 41 38 34 27 22 18 17 15 14 11 10 9
0 0 0 0 0 0 0 0 0 0 0 1 1 1 2 4 5 8 11 17 25 29 27 24 25 28 31 34 37 39 41 44 44 41 36 31 24 19 16 16 16 14 11 10
0 0 0 0 0 0 0 0 0 0 0 0 0 1 3 4 5 7 10 15 25 30 29 27 27 27 28 33 38 40 44 44 44 44 43 38 29 22 19 18 17 14 12 11
0 0 0 0 0 0 0 0 0 0 0 0 1 1 3 4 5 7 11 17 26 32 32 30 29 27 28 33 39 44 48 47 47 48 49 43 34 28 24 21 17 15 14 13
0 0 0 0 0 0 0 0 0 0 0 1 1 2 4 5 6 7 11 19 27 33 34 32 30 28 28 32 38 44 48 49 49 50 50 46 40 33 27 22 19 17 15 15
0 0 0 0 0 0 0 0 0 0 1 3 3 4 6 8 10 13 17 25 31 34 35 35 33 31 29 31 34 39 44 46 46 46 47 47 43 36 28 22 19 18 16 16
0 0 0 0 0 0 0 0 0 1 3 5 7 9 10 13 18 22 26 32 37 40 41 41 38 35 32 30 31 34 39 42 42 42 45 46 44 38 29 23 22 21 19 18
0 0 0 0 0 0 0 1 2 4 6 9 13 15 18 21 24 26 27 32 38 42 45 46 42 39 37 34 32 34 38 41 41 42 44 45 43 38 29 24 24 24 23 22
0 0 0 0 0 0 0 1 4 8 12 15 19 23 25 26 26 24 24 26 31 36 42 46 45 42 41 39 38 37 39 42 43 43 45 45 42 38 32 27 25 25 25 24
0 0 0 0 1 0 0 1 5 10 14 16 21 26 28 27 25 24 24 25 26 31 38 44 47 47 44 42 42 41 42 44 46 46 44 44 42 39 35 31 27 26 25 24
0 0 0 0 0 0 1 2 5 8 12 14 18 23 25 25 25 25 25 25 25 29 37 44 47 49 46 42 43 45 46 48 49 46 42 40 39 38 36 32 28 26 25 23
1 0 0 0 0 0 2 4 5 7 10 11 14 19 23 25 26 27 27 27 28 32 39 45 47 47 45 43 43 45 46 46 45 43 40 37 36 34 32 28 26 25 24 22
2 1 0 0 0 0 2 4 5 7 9 12 15 20 24 26 29 31 30 30 32 36 41 44 44 43 42 41 40 40 39 37 38 40 39 36 34 32 28 25 23 22 21 20
3 2 1 1 2 2 2 3 4 6 10 15 18 22 24 26 28 30 30 31 33 37 40 41 41 41 40 38 36 33 31 30 34 37 36 35 32 28 25 22 20 20 18 17
1 1 3 5 5 4 2 2 2 5 10 15 18 20 22 23 25 26 26 27 31 34 34 35 36 37 36 35 31 27 25 27 31 33 34 32 27 23 20 19 17 16 14 12
0 1 3 6 6 5 3 2 3 6 10 13 14 15 18 19 20 19 19 22 26 27 26 26 28 29 31 30 26 22 21 23 27 30 30 27 23 19 17 16 13 11 9 8
0 1 3 5 5 4 3 2 5 8 10 9 10 12 15 16 14 12 13 18 22 22 19 19 22 25 27 27 24 20 19 19 22 26 27 25 22 19 17 15 10 6 5 5

GEFSCGP_con_prob3kmehi_228.txt.gz
EHI
0 0 0 0 0 0 0 0 0 0 0 1 2 2 2 3 5 7 8 5 1 0 0 1 3 5 7 7 6 4 2 1 0 0 0 0 0 0 0 0 0 0 1 1
0 0 0 0 0 0 0 0 0 0 0 1 2 2 2 2 4 6 7 5 1 0 0 1 4 7 8 7 6 5 3 2 1 0 0 0 0 0 0 0 0 1 2 2
0 0 0 0 0 0 0 0 0 0 0 1 2 2 1 1 2 4 6 3 1 0 0 3 7 9 8 8 8 6 4 2 1 0 0 0 0 0 0 0 0 1 2 3
0 0 0 0 0 0 0 0 0 0 0 0 1 1 0 0 1 3 5 3 1 0 0 4 9 11 9 8 8 5 3 2 1 0 0 0 0 0 0 0 0 0 1 2
0 0 0 0 0 0 0 0 0 0 0 0 0 0 0 0 0 2 4 4 1 0 1 4 9 10 8 8 8 5 2 1 0 0 0 1 1 0 0 0 0 0 0 1
0 0 0 0 0 0 0 0 0 0 0 0 0 0 0 0 0 1 4 4 1 0 1 4 7 7 7 9 10 6 2 0 0 0 1 2 2 1 1 1 0 1 1 0
0 0 0 0 0 0 0 0 0 0 0 0 0 0 0 0 0 1 4 4 1 0 1 4 6 6 7 11 13 10 5 2 2 2 2 3 4 4 3 2 1 1 1 1
0 0 0 0 0 0 0 0 0 0 0 0 0 0 0 0 0 1 4 4 2 0 2 4 4 4 7 12 17 15 10 7 6 6 5 4 5 5 4 3 2 1 1 0
0 0 0 0 0 0 0 0 0 0 0 0 0 0 0 0 1 2 3 4 3 1 2 3 3 3 5 11 16 16 12 11 11 10 8 6 6 5 4 2 1 0 0 0
0 0 0 0 0 0 0 0 0 0 0 0 0 0 0 0 1 2 2 2 3 3 2 2 2 3 4 8 13 14 12 12 13 13 11 9 7 6 5 3 1 1 1 1
0 0 0 0 0 0 0 0 0 0 0 0 0 0 0 1 2 2 1 1 3 5 5 4 3 2 3 7 11 13 13 13 14 15 15 13 11 9 7 6 4 4 4 4
0 0 0 0 0 0 0 0 0 0 0 0 0 0 0 1 3 3 1 1 3 6 7 6 5 4 5 7 11 14 14 14 15 17 20 20 17 13 11 9 9 9 8 8
0 0 0 0 0 0 0 0 0 0 0 0 0 0 1 2 4 3 2 2 4 6 7 7 7 8 8 8 10 13 15 17 18 20 24 25 22 18 15 13 11 10 10 9
0 0 0 0 0 0 0 0 0 0 0 0 0 0 1 3 3 2 3 5 8 8 7 7 9 10 11 11 11 12 15 18 20 22 24 24 22 18 17 15 12 11 9 8
0 0 0 0 0 0 0 1 1 0 0 0 0 0 1 3 4 5 6 8 10 12 10 8 8 10 12 12 12 12 13 17 19 22 23 22 19 17 16 15 13 11 10 9
0 0 0 0 0 0 0 1 1 1 1 0 0 1 3 6 9 10 12 11 11 12 12 9 9 10 12 13 12 11 13 17 19 21 22 23 21 18 15 14 12 10 11 12
0 0 0 0 0 0 0 1 2 4 4 3 2 4 8 12 13 13 14 13 12 12 14 13 12 11 12 13 12 10 12 17 20 21 23 25 26 22 17 14 11 9 12 14
0 0 0 0 0 0 1 2 4 8 9 6 6 9 14 18 16 13 13 14 15 16 17 17 16 14 13 14 14 13 15 19 23 22 22 26 29 25 20 16 12 10 11 12
0 0 0 0 0 1 2 4 7 10 10 9 9 12 18 21 18 15 13 15 17 19 20 21 20 18 17 18 19 20 21 24 27 27 26 28 29 27 23 19 14 10 9 9
0 0 1 1 1 1 2 4 6 8 8 8 10 13 18 20 17 13 13 15 16 16 18 22 23 23 23 22 23 26 27 28 29 30 29 29 28 25 22 19 15 10 8 7
0 0 1 2 2 1 2 5 6 5 5 7 10 13 16 15 11 9 12 15 14 14 15 20 24 25 24 23 24 26 27 26 25 25 25 25 24 21 17 16 15 12 9 7
0 0 1 2 2 1 2 5 5 4 4 7 9 12 12 11 8 7 10 13 13 13 15 19 23 25 23 22 23 23 22 19 18 18 18 18 19 17 14 14 14 13 10 7
0 0 0 1 1 0 1 3 3 3 4 6 9 10 9 8 7 6 8 11 12 13 14 18 21 23 22 21 19 17 14 13 12 12 13 14 15 15 13 13 13 12 10 8
0 0 0 1 0 0 1 2 2 2 3 4 7 8 7 7 7 6 7 8 9 10 11 13 16 18 19 17 15 12 11 10 10 10 11 12 13 13 12 11 12 12 10 9
0 0 0 0 0 0 0 1 1 1 1 2 3 5 5 6 6 5 5 6 6 6 5 6 8 11 13 14 12 10 9 9 9 9 10 11 12 12 11 10 10 10 9 9
0 0 0 0 0 0 0 0 0 0 0 0 1 3 4 5 5 5 4 4 5 3 2 2 3 6 10 12 12 10 8 8 8 8 10 11 11 11 11 10 9 8 8 7

GEFSCGP_con_prob3kmehi_234.txt.gz
EHI
0 0 0 0 0 0 0 0 0 0 0 1 2 3 3 3 3 4 6 6 4 1 0 0 1 2 4 6 7 6 6 4 2 1 2 3 2 1 1 1 1 0 1 3
0 0 0 0 0 0 0 0 0 0 0 1 2 3 3 3 3 3 5 6 4 2 1 1 2 3 5 8 8 7 6 5 3 2 2 3 2 0 0 0 0 0 1 2
0 0 0 0 0 0 0 0 0 0 0 1 2 3 3 3 3 3 5 5 4 2 1 1 2 5 8 9 9 8 8 6 4 3 3 3 2 1 0 0 0 0 1 1
0 0 0 0 0 0 0 0 0 0 0 0 1 1 2 2 2 5 7 7 5 3 1 0 2 5 7 8 8 9 11 11 8 6 4 2 2 1 0 0 0 1 2 2
0 0 0 0 0 0 0 0 0 0 0 0 0 0 1 1 1 4 8 9 7 5 3 1 1 3 3 4 5 8 13 15 13 10 7 4 2 1 1 1 1 3 4 4
0 0 0 0 0 0 0 0 0 0 0 0 0 0 1 1 1 2 6 10 10 8 6 3 1 1 1 3 5 7 12 15 14 12 9 6 4 3 4 4 3 3 5 5
0 0 0 0 0 0 0 0 0 0 0 0 0 1 2 2 3 2 4 9 12 11 9 6 5 4 4 6 8 10 13 14 13 12 11 9 6 5 6 5 3 2 3 4
0 0 0 0 0 0 0 0 0 0 0 0 0 1 2 2 3 3 3 7 12 14 11 9 8 8 8 9 12 14 14 13 12 12 12 11 8 5 4 3 2 1 1 2
0 0 0 0 0 0 0 0 0 0 0 0 0 1 1 2 3 4 5 8 14 17 13 8 7 8 9 9 11 13 14 13 13 13 13 13 10 7 4 4 4 4 4 4
0 0 0 0 0 0 0 0 0 0 0 0 0 1 1 2 5 8 11 13 15 17 14 8 6 6 7 8 8 11 14 14 14 14 14 14 13 11 9 10 11 11 11 11
0 0 0 0 0 0 0 0 0 0 0 0 0 1 1 2 5 11 15 16 16 17 16 12 9 8 9 9 9 11 14 17 17 17 17 17 17 17 17 17 18 18 17 17
0 0 0 0 0 0 0 0 0 0 0 0 0 1 1 2 4 9 15 17 18 19 19 18 16 15 14 12 12 14 16 19 21 21 20 20 20 21 22 22 21 21 20 20
0 0 0 0 0 0 0 0 0 0 0 0 0 0 0 1 3 8 14 18 20 23 23 23 23 22 19 18 18 18 19 22 24 23 22 22 21 21 23 23 22 21 21 21
0 0 0 0 0 0 0 0 0 0 0 0 0 0 1 3 6 11 15 17 22 27 28 26 27 28 27 26 25 24 24 26 27 25 24 24 24 22 22 23 22 20 19 19
0 0 0 0 0 0 0 0 0 0 0 0 0 2 6 10 13 16 18 20 25 31 32 30 30 32 30 30 30 29 28 30 30 27 26 28 28 25 23 23 22 20 19 18
0 0 0 0 0 0 0 0 0 0 0 0 1 5 10 15 19 23 25 26 30 35 35 33 33 34 32 30 30 30 30 32 32 30 28 28 29 28 27 26 25 25 23 21
0 0 0 0 0 0 0 0 0 1 1 2 4 8 12 16 22 28 31 32 34 36 36 36 37 36 34 32 32 31 31 31 32 30 28 27 28 30 31 32 32 31 28 25
0 0 0 0 0 0 0 0 1 3 5 6 10 13 14 15 20 27 31 33 35 35 35 37 38 37 35 35 35 34 32 31 30 29 28 27 28 31 33 35 35 33 31 30
0 0 0 0 0 0 1 1 3 6 9 12 15 18 16 14 17 23 27 30 32 33 33 33 33 31 30 32 34 36 34 31 29 29 29 28 28 31 34 36 36 33 31 31
0 0 0 0 0 1 2 3 3 5 11 15 18 19 16 15 20 23 23 24 26 29 30 30 30 29 29 32 35 36 33 30 28 29 30 30 30 30 31 33 35 33 30 29
0 0 0 0 0 1 3 5 5 9 13 17 20 20 20 22 26 25 20 18 20 24 27 30 32 33 35 37 38 36 32 30 29 30 31 31 29 28 27 29 32 31 28 27
0 0 0 0 1 3 6 8 11 16 18 17 20 22 24 26 25 21 16 15 17 21 25 30 34 36 38 39 39 36 33 31 31 30 29 27 25 25 25 26 26 25 23 24
1 1 1 1 3 6 9 10 13 17 17 16 19 22 24 23 20 16 14 15 17 20 23 27 30 32 33 34 35 33 30 29 28 27 26 23 20 19 20 20 19 18 19 19
2 3 3 3 5 9 11 11 12 13 15 17 18 19 19 19 16 13 13 15 17 19 21 24 25 25 25 27 27 25 23 23 24 23 22 19 16 13 13 13 13 14 15 16
4 4 4 5 7 10 11 12 12 12 14 16 16 16 15 14 11 9 9 11 14 16 17 20 21 19 18 20 21 20 19 20 21 19 16 14 13 11 11 10 10 9 10 11
4 4 4 6 9 10 11 11 11 11 12 13 14 14 13 11 8 6 7 9 12 13 15 17 17 16 17 17 18 18 18 20 21 18 13 10 11 12 11 9 8 6 6 7

GEFSCGP_con_prob3kmehi_240.txt.gz
EHI
0 0 0 0 0 0 0 0 0 0 0 1 3 4 4 3 2 3 7 11 14 13 12 11 10 14 24 34 34 28 22 16 7 2 4 8 8 6 5 6 8 8 7 7
0 0 0 0 0 0 0 0 0 0 0 2 3 4 4 3 3 3 6 11 13 14 17 18 17 20 30 38 38 31 26 20 12 5 5 7 7 5 5 9 12 12 10 10
0 0 0 0 0 0 0 0 0 0 0 1 2 3 3 4 4 3 5 10 12 15 23 26 24 26 35 43 40 33 30 26 17 10 7 7 8 7 7 13 18 17 15 14
0 0 0 0 0 0 0 0 0 0 0 0 1 2 4 5 4 2 4 8 10 15 24 29 29 30 36 40 37 35 34 31 23 14 8 8 11 10 9 13 20 20 18 16
0 0 0 0 0 0 0 0 0 0 0 0 0 1 5 6 4 3 4 7 10 15 23 30 32 33 33 33 34 37 38 34 27 19 12 10 11 10 9 14 20 20 18 16
0 0 0 0 0 0 0 0 0 0 0 0 0 1 4 5 4 5 6 7 11 15 21 29 35 35 31 30 34 40 42 39 31 23 17 14 13 10 10 15 19 19 19 20
0 0 0 0 0 0 0 0 0 0 0 0 0 1 2 3 3 5 8 8 11 16 22 32 40 39 35 33 37 45 48 44 37 28 22 20 18 13 11 13 16 16 19 22
0 0 0 0 0 0 0 0 0 0 0 0 1 3 3 2 3 4 8 9 12 17 24 34 41 42 40 38 42 49 52 48 41 33 27 25 23 16 11 12 12 12 15 17
0 0 0 0 0 0 0 0 0 0 0 0 2 4 5 4 4 6 9 13 15 19 26 32 36 38 39 40 45 51 53 49 43 38 32 28 25 18 15 18 18 15 15 16
0 0 0 0 0 0 0 0 0 0 0 0 2 3 4 5 7 9 13 16 19 24 28 30 31 33 35 39 42 47 51 50 46 42 36 31 28 24 23 26 27 25 24 23
0 0 0 0 0 0 0 0 0 0 0 0 1 3 4 5 9 11 15 20 24 28 32 33 30 31 34 36 38 42 47 48 46 44 40 36 34 32 30 31 33 33 32 32
0 0 0 0 0 0 0 0 0 0 0 0 1 3 6 8 10 13 18 25 30 33 35 35 34 36 37 37 37 40 43 45 45 44 42 40 39 37 36 36 36 37 37 37
0 0 0 0 0 0 0 0 0 0 0 0 2 6 9 11 13 16 23 32 36 36 37 38 40 43 44 44 42 42 42 42 43 43 42 40 39 40 40 40 39 40 41 41
0 0 0 0 0 0 0 0 0 0 0 1 3 7 10 11 14 20 29 37 39 40 41 43 47 51 52 52 50 47 42 39 39 41 42 40 41 41 42 41 40 40 41 41
0 0 0 0 0 0 0 0 0 0 0 1 3 8 12 15 18 24 32 39 40 42 43 47 53 59 61 60 57 52 46 42 42 44 44 44 43 43 42 40 38 38 39 38
0 0 0 0 0 0 0 0 0 0 0 2 6 12 18 23 26 29 35 40 42 43 45 50 60 67 70 68 62 56 52 51 53 53 50 48 45 43 42 40 37 37 37 37
0 0 0 0 0 1 1 0 0 1 1 3 9 15 21 26 31 35 40 44 45 46 48 53 61 68 70 67 63 58 55 57 60 58 53 49 45 43 41 40 39 38 38 38
0 0 0 0 1 2 3 2 1 2 3 5 10 18 23 28 34 38 42 46 51 53 54 55 57 59 62 61 59 56 53 54 57 54 50 48 45 42 41 41 41 41 40 39
1 1 0 0 1 3 3 3 3 3 5 8 15 24 29 32 35 36 37 43 50 53 54 53 50 49 51 53 54 54 51 50 50 48 47 47 45 43 42 42 42 43 42 42
0 1 1 1 2 3 3 3 3 6 11 18 25 33 36 36 36 36 36 38 42 45 47 47 45 43 44 47 49 50 50 47 44 44 46 47 45 43 42 43 43 43 42 42
0 1 1 2 3 4 5 5 8 16 27 33 37 42 44 44 43 41 39 38 35 37 40 42 43 43 42 44 46 47 49 47 45 45 48 48 45 42 40 41 41 40 38 37
1 2 3 4 6 11 14 16 20 30 40 42 43 47 50 49 46 42 40 38 34 33 36 38 41 43 44 45 45 47 49 49 48 48 49 49 47 42 39 40 38 35 33 32
4 4 6 9 13 20 25 28 30 34 38 39 39 42 43 40 36 33 33 33 31 31 34 37 39 41 44 45 46 47 49 48 47 46 46 47 46 41 38 36 34 31 29 28
5 6 9 13 18 22 27 29 30 31 32 33 33 32 30 28 26 26 26 28 28 30 33 35 36 38 40 41 41 42 42 43 42 42 42 41 39 35 31 30 29 28 27 25
5 5 7 12 15 18 19 21 24 28 30 31 29 27 25 24 23 23 23 25 26 29 31 32 33 34 34 35 35 34 35 36 37 37 37 34 30 26 24 23 23 23 21 20
6 4 4 8 12 15 15 16 18 24 28 29 28 27 25 24 23 22 21 22 24 25 28 29 29 29 30 31 30 30 32 32 33 34 32 29 25 22 19 19 19 16 15 14

GEFSCGP_con_prob3kmehi_246.txt.gz
EHI
0 0 0 0 0 0 0 1 2 2 2 2 1 1 2 3 5 7 7 5 5 8 12 18 22 20 16 11 8 8 7 6 3 1 0 0 0 0 0 0 0 1 1 0
0 0 0 0 0 0 0 1 1 1 1 1 0 0 1 2 4 5 5 5 6 9 15 21 25 26 22 17 13 10 8 6 3 1 0 0 0 0 0 0 0 1 2 1
0 0 0 0 0 0 0 0 0 0 0 0 0 0 1 2 3 4 4 5 7 12 18 24 29 32 29 22 17 12 9 6 5 2 1 0 0 0 0 0 0 1 2 2
0 0 0 0 0 0 0 0 0 0 0 0 1 0 1 2 3 3 3 4 8 13 20 26 31 34 32 25 18 12 8 8 7 6 4 1 0 0 0 0 0 0 1 1
0 0 0 0 0 1 1 0 0 0 0 0 0 0 1 2 2 2 3 4 6 12 20 26 31 35 34 28 21 14 10 8 8 9 8 4 1 1 1 1 0 0 1 2
0 0 0 0 0 1 2 1 0 0 0 0 0 0 0 1 1 2 2 3 5 11 18 22 27 34 36 33 28 21 15 10 8 8 8 5 2 2 2 1 0 0 1 2
0 0 0 0 0 1 2 1 0 0 0 0 0 0 0 0 0 1 2 2 5 12 17 20 25 34 38 38 35 31 23 15 10 8 7 5 3 2 1 1 1 1 1 2
0 0 0 0 0 1 1 0 0 0 0 0 0 0 0 1 2 3 4 4 7 13 19 23 27 34 40 41 40 37 30 21 15 12 10 8 6 3 2 2 2 3 2 1
0 0 0 0 0 0 0 0 0 0 0 0 0 0 1 2 5 7 8 7 10 16 22 26 27 31 37 41 41 38 34 27 22 19 16 12 9 6 4 4 4 3 2 1
0 0 0 0 0 0 0 0 0 0 0 0 0 0 1 3 6 9 9 9 13 19 25 26 25 27 34 39 40 39 36 32 29 27 23 18 14 11 10 8 6 4 3 3
0 0 0 0 0 0 0 0 0 0 0 0 0 0 0 2 5 8 9 10 13 21 27 26 24 25 32 37 38 38 37 33 31 32 30 24 19 18 16 13 9 6 5 5
0 0 0 0 0 0 0 0 0 0 0 0 0 1 1 3 6 8 10 10 13 21 27 27 24 25 31 35 36 35 35 32 30 31 31 28 25 23 20 16 12 9 8 7
0 0 0 0 0 0 0 0 0 0 0 0 1 2 3 5 7 9 11 11 14 21 27 27 25 28 32 34 34 35 35 33 30 28 28 29 28 25 21 19 17 14 12 11
0 0 0 0 0 0 0 0 0 0 0 1 2 3 4 6 8 9 10 12 15 23 30 28 27 30 32 34 35 35 35 33 30 27 26 27 27 25 23 21 21 20 17 16
0 0 0 0 1 1 0 0 0 0 1 2 3 3 5 8 11 11 13 16 20 28 34 33 31 31 33 33 34 34 35 34 31 28 26 25 25 24 23 23 24 23 22 21
0 0 0 1 2 2 1 1 1 2 3 4 5 5 8 13 16 17 21 26 28 31 35 35 33 32 32 31 31 31 32 31 30 28 27 26 25 24 24 25 26 27 25 24
0 0 0 1 3 3 3 3 3 5 6 7 8 11 15 19 20 22 27 32 33 32 32 31 29 29 29 28 29 29 29 29 28 28 29 28 26 25 24 25 27 26 24 22
0 0 1 2 3 3 3 4 6 8 9 10 12 17 22 24 23 23 27 31 33 32 31 29 27 26 27 29 30 29 28 28 29 31 32 30 28 27 24 23 23 21 20 20
0 0 2 3 3 2 3 5 7 10 13 13 15 19 23 26 26 25 27 30 32 31 30 30 28 27 28 31 32 31 30 30 31 32 30 29 29 28 25 21 18 17 17 18
1 1 2 3 3 2 3 4 5 9 13 14 15 19 22 26 27 27 29 30 28 27 27 27 28 29 31 32 31 30 29 29 30 29 27 26 27 27 24 20 18 16 15 15
2 2 2 3 3 3 3 4 3 5 9 12 14 18 22 24 25 25 25 25 24 23 23 23 25 29 32 32 30 28 26 27 27 26 25 26 26 25 22 19 18 16 15 14
2 3 2 2 2 3 3 3 2 3 6 10 14 17 20 21 20 20 19 19 19 20 21 21 23 26 30 31 30 27 25 24 25 25 25 26 25 22 17 15 15 15 16 16
1 2 3 3 4 5 7 8 7 7 8 10 13 16 18 17 15 14 14 14 15 17 19 19 19 21 25 28 28 26 24 23 23 25 25 24 23 19 14 12 12 13 14 15
1 2 5 7 7 9 12 13 13 11 11 11 12 15 16 15 12 11 12 12 13 15 17 18 17 18 20 22 22 22 22 22 22 23 24 23 21 18 15 12 12 12 12 12
2 3 6 9 10 11 12 12 12 12 11 11 11 12 12 12 11 10 10 11 13 15 16 17 17 17 16 15 15 16 17 19 19 20 20 20 18 16 14 13 11 9 8 8
1 3 7 10 11 10 9 9 10 11 10 9 9 10 9 9 9 9 9 10 12 14 16 16 16 15 13 12 11 12 13 15 17 17 16 16 15 13 13 12 9 7 6 6